Location: *
(43.7000°S, 168.7000°W)
Time: 14:56:51
(UTC+00:00)

Cosmos 2082 - Pass Details

Date: 07 July 2020
Orbit: 835 x 854 km, 71.0° (Epoch: 04 August)

Event Time Altitude Azimuth Distance (km) Brightness Sun altitude
Exits shadow 17:11:37 10° 203° (SSW) 2,489 5.8 -16.8°
Maximum altitude 17:17:22 81° 115° (ESE) 879 3.8 -15.8°
Drops below altitude 10° 17:23:06 10° 27° (NNE) 2,487 6.8 -14.8°
Sets 17:25:32 0° 26° (NNE) 3,414 7.5 -14.3°
